Regional Weather Roundup
Issued by NWS

Home | Current Version | Previous Version | Text Only | Print | Product List | Glossary On
Versions: 1 2 3 4 5 6 7 8 9 10 11 12 13 14 15 16 17 18 19 20 21 22 23 24 25 26 27 28 29 30 31 32 33 34 35 36 37 38 39 40 41 42 43 44 45 46 47 48 49 50
000
ASUS43 KTOP 251808
RWRKS

WEATHER ROUNDUP FOR KANSAS
NATIONAL WEATHER SERVICE GOODLAND KS
100 PM CDT SAT MAR 25 2017

NOTE:  "FAIR" INDICATES FEW OR NO CLOUDS BELOW 12,000 FEET WITH NO
SIGNIFICANT WEATHER AND/OR OBSTRUCTIONS TO VISIBILITY.

KSZ001>006-013>018-027>032-041>047-251900-
NORTHWEST KANSAS

CITY           SKY/WX    TMP DP  RH WIND       PRES   REMARKS
GOODLAND       FAIR      52  29  41 N6        30.02F
6HR MIN TEMP:  31; 6HR MAX TEMP:  52;

HAYS             N/A     44  38  79 NW14      30.01F
HILL CITY      CLOUDY    46  39  76 N9        30.02F
6HR MIN TEMP:  38; 6HR MAX TEMP:  47;

RUSSELL        CLOUDY    42  38  85 N14       29.99S
6HR MIN TEMP:  40; 6HR MAX TEMP:  42;

$$

KSZ061>065-074>080-084>089-251900-
SOUTHWEST KANSAS

CITY           SKY/WX    TMP DP  RH WIND       PRES   REMARKS
DODGE CITY     FAIR      57  38  48 NW23G31   29.98F
6HR MIN TEMP:  39; 6HR MAX TEMP:  57;

ELKHART          N/A     58  25  28 N10         N/A
GARDEN CITY    FAIR      59  28  30 N21G26    30.00F
6HR MIN TEMP:  34; 6HR MAX TEMP:  59;

GREAT BEND     CLOUDY    44  39  82 N15       30.00S
LIBERAL        FAIR      59  27  29 N16G22    30.03F
PRATT          CLOUDY    44  37  77 N16       29.98F
6HR MIN TEMP:  39; 6HR MAX TEMP:  44;

$$

KSZ066>073-081>083-090>101-251900-
SOUTHEAST KANSAS

CITY           SKY/WX    TMP DP  RH WIND       PRES   REMARKS
CHANUTE        LGT RAIN  48  43  82 NW10      29.87S
6HR MIN TEMP:  46; 6HR MAX TEMP:  49; 6HR PCP: TRACE;

COFFEYVILLE    LGT RAIN  49  44  83 W12       29.91R
6HR MIN TEMP:  47; 6HR MAX TEMP:  52; 6HR PCP:  0.01;

HUTCHINSON     CLOUDY    43  39  86 N14       29.97S
6HR MIN TEMP:  42; 6HR MAX TEMP:  43; 6HR PCP: TRACE;

MEDICINE LODGE   N/A     47  39  74 NW14G21   29.98F
NEWTON         CLOUDY    42  39  89 NW18      29.94S
PARSONS        LGT RAIN  49  44  83 W12       29.90R
6HR MIN TEMP:  47; 6HR MAX TEMP:  51; 6HR PCP:  0.01;

WICHITA INTL   CLOUDY    44  40  85 NW16G23   29.96R
6HR MIN TEMP:  43; 6HR MAX TEMP:  45; 6HR PCP:  0.02;

WICHITA JABRA  CLOUDY    44  40  85 NW17      29.94S
6HR MIN TEMP:  42; 6HR MAX TEMP:  44; 6HR PCP: TRACE;

WICHITA MCCONL CLOUDY    44  38  81 NW13      29.95R
WINFIELD       CLOUDY    46  41  82 NW14      29.97R
6HR MIN TEMP:  44; 6HR MAX TEMP:  47; 6HR PCP:  0.01;

$$

KSZ007>012-019>026-033>040-048>060-102>105-251900-
NORTHEAST KANSAS

CITY           SKY/WX    TMP DP  RH WIND       PRES   REMARKS
CONCORDIA      CLOUDY    42  39  89 N14       29.96F
6HR MIN TEMP:  39; 6HR MAX TEMP:  42; 6HR PCP:  0.03;

EMPORIA        CLOUDY    44  44 100 NW13      29.89S FOG
6HR MIN TEMP:  42; 6HR MAX TEMP:  45; 6HR PCP:  0.11;

LAWRENCE       LGT RAIN  50  50 100 N9        29.85F FOG
6HR MIN TEMP:  46; 6HR MAX TEMP:  50; 6HR PCP:  0.08;

MANHATTAN      CLOUDY    46  42  86 N8        29.92F
6HR MIN TEMP:  43; 6HR MAX TEMP:  46; 6HR PCP:  0.02;

MARYSVILLE     LGT RAIN  43  41  93 N15       29.93F
OLATHE IND     LGT RAIN  52  51  97 N10       29.83F FOG
6HR MIN TEMP:  46; 6HR MAX TEMP:  52; 6HR PCP:  0.04;

OLATHE EXE     CLOUDY    54  54 100 N9        29.82S
6HR MIN TEMP:  47; 6HR MAX TEMP:  54; 6HR PCP:  0.04;

SALINA         CLOUDY    45  40  82 NW18      29.96F
6HR MIN TEMP:  43; 6HR MAX TEMP:  45; 6HR PCP:  0.01;

TOPEKA BILLARD CLOUDY    48  47  96 N10       29.87S
6HR MIN TEMP:  44; 6HR MAX TEMP:  49; 6HR PCP:  0.49;

TOPEKA FORBES  CLOUDY    49  46  90 N16       29.86S
6HR MIN TEMP:  44; 6HR MAX TEMP:  50; 6HR PCP:  0.57;

$$




USA.gov is the U.S. government's official web portal to all federal, state and local government web resources and services.